This is the latest recevied weather packets stored in our database for station/object W5ALL-WX. If no packets are shown the sender has not sent any weather packets the latest 10 day(s).
| Time | Temp. | Humidity | Pressure | Rain* | Wind** | Luminosity | Snow |
|---|---|---|---|---|---|---|---|
| 1777398426 | 25.56° C | 6% | 1017.6 hPa | 0 mm | - | - | - |
| 1777398126 | 25° C | 7% | 1017.5 hPa | 0 mm | - | - | - |
| 1777397830 | 25° C | 6% | 1017.5 hPa | 0 mm | - | - | - |
| 1777397526 | 24.44° C | 7% | 1017.6 hPa | 0 mm | - | - | - |
| 1777397226 | 24.44° C | 7% | 1017.6 hPa | 0 mm | - | - | - |
| 1777396926 | 23.89° C | 6% | 1017.7 hPa | 0 mm | - | - | - |
| 1777396626 | 24.44° C | 7% | 1017.7 hPa | 0 mm | - | - | - |
| 1777396326 | 23.89° C | 7% | 1018 hPa | 0 mm | - | - | - |
| 1777396026 | 23.89° C | 7% | 1018 hPa | 0 mm | - | - | - |
| 1777395726 | 23.89° C | 7% | 1018 hPa | 0 mm | - | - | - |
| 1777395426 | 23.33° C | 7% | 1018.1 hPa | 0 mm | - | - | - |
| 1777395126 | 23.33° C | 9% | 1017.8 hPa | 0 mm | - | - | - |
| 1777394826 | 23.33° C | 8% | 1017.8 hPa | 0 mm | - | - | - |
| 1777394526 | 23.33° C | 10% | 1017.7 hPa | 0 mm | - | - | - |
| 1777394226 | 23.33° C | 9% | 1017.6 hPa | 0 mm | - | - | - |
| 1777393926 | 23.33° C | 8% | 1017.7 hPa | 0 mm | - | - | - |
| 1777393626 | 23.33° C | 9% | 1017.6 hPa | 0 mm | - | - | - |
| 1777393326 | 23.33° C | 10% | 1017.6 hPa | 0 mm | - | - | - |
| 1777393026 | 23.33° C | 10% | 1017.6 hPa | 0 mm | - | - | - |
| 1777392726 | 22.78° C | 10% | 1017.6 hPa | 0 mm | - | - | - |
| 1777392426 | 22.78° C | 10% | 1017.5 hPa | 0 mm | - | - | - |
| 1777392126 | 22.78° C | 10% | 1017.5 hPa | 0 mm | - | - | - |
| 1777391826 | 22.78° C | 9% | 1017.6 hPa | 0 mm | - | - | - |
| 1777391526 | 22.78° C | 10% | 1017.6 hPa | 0 mm | - | - | - |
| 1777391226 | 22.78° C | 11% | 1017.6 hPa | 0 mm | - | - | - |
* Rain latest hour (hover to see other rain measurements)
** Current wind speed in m/s (hover to see current wind gust speed)